,,,PA_Meas_PMT16A,,PR_Meas_QMR101_102,,RH_Meas_QMH101,,SR_Meas_QMS101,,TA_Meas_QMH101,,GenWind,,GenWind,
date,time,status,PA,status,PR,status,RH,status,SR,status,TA,status,DirAvg,status,SpdAvg,
2008-03-25, 00:00:04,VALID,1009.99,VALID,0,VALID,95.8481,VALID,0,VALID,24.2378,VALID,65,VALID,0.1875,
2008-03-25, 00:01:04,VALID,1010,VALID,0,VALID,95.871,VALID,0,VALID,24.2591,VALID,65,VALID,0.135156,
2008-03-25, 00:02:04,VALID,1009.99,VALID,0,VALID,95.8481,VALID,0.105969,VALID,24.2591,VALID,65,VALID,0,
2008-03-25, 00:03:04,VALID,1010,VALID,0,VALID,95.8176,VALID,0,VALID,24.2396,VALID,65,VALID,0,
2008-03-25, 00:04:04,VALID,1009.98,VALID,0,VALID,95.8557,VALID,0,VALID,24.2591,VALID,65,VALID,0,
2008-03-25, 00:05:04,VALID,1009.97,VALID,0,VALID,95.9701,VALID,0.105969,VALID,24.2591,VALID,65,VALID,0,
2008-03-25, 00:06:04,VALID,1009.97,VALID,0,VALID,95.993,VALID,0.105969,VALID,24.2786,VALID,65,VALID,0.0484375,
2008-03-25, 00:07:04,VALID,1009.96,VALID,0,VALID,95.9625,VALID,0.105969,VALID,24.2768,VALID,21,VALID,0.350781,
2008-03-25, 00:08:04,VALID,1009.94,VALID,0,VALID,95.9549,VALID,0,VALID,24.2981,VALID,360,VALID,0.241016,
2008-03-25, 00:09:04,VALID,1009.94,VALID,0,VALID,95.9167,VALID,0.105969,VALID,24.2981,VALID,360,VALID,0.247266,
2008-03-25, 00:10:04,VALID,1009.95,VALID,0,VALID,95.8633,VALID,0,VALID,24.2981,VALID,360,VALID,0.178516,
2008-03-25, 00:11:04,VALID,1009.95,VALID,0,VALID,95.8405,VALID,0,VALID,24.2786,VALID,360,VALID,0.0695312,
2008-03-25, 00:12:04,VALID,1009.93,VALID,0,VALID,95.8023,VALID,0,VALID,24.2786,VALID,360,VALID,0,
2008-03-25, 00:13:04,VALID,1009.91,VALID,0,VALID,95.8023,VALID,0,VALID,24.2768,VALID,360,VALID,0.0046875,
2008-03-25, 00:14:04,VALID,1009.88,VALID,0,VALID,95.7413,VALID,0,VALID,24.2396,VALID,360,VALID,0.269531,
2008-03-25, 00:15:04,VALID,1009.86,VALID,0,VALID,95.7718,VALID,0,VALID,24.2183,VALID,360,VALID,0.354688,
2008-03-25, 00:16:04,VALID,1009.86,VALID,0,VALID,95.7871,VALID,0.105969,VALID,24.2202,VALID,360,VALID,0.325391,
2008-03-25, 00:17:04,VALID,1009.85,VALID,0,VALID,95.7718,VALID,0,VALID,24.2202,VALID,360,VALID,0.212109,
2008-03-25, 00:18:04,VALID,1009.84,VALID,0,VALID,95.7795,VALID,0,VALID,24.1793,VALID,360,VALID,0.126563,
2008-03-25, 00:19:04,VALID,1009.83,VALID,0,VALID,95.7871,VALID,0,VALID,24.1812,VALID,360,VALID,0.131641,
2008-03-25, 00:20:04,VALID,1009.84,VALID,0,VALID,95.7871,VALID,0,VALID,24.1599,VALID,360,VALID,0.141797,
2008-03-25, 00:21:04,VALID,1009.8,VALID,0,VALID,95.8481,VALID,0,VALID,24.1617,VALID,360,VALID,0.0722656,
2008-03-25, 00:22:04,VALID,1009.79,VALID,0,VALID,95.8939,VALID,0,VALID,24.1617,VALID,360,VALID,0,
2008-03-25, 00:23:04,VALID,1009.79,VALID,0,VALID,95.9091,VALID,0,VALID,24.2025,VALID,360,VALID,0.203516,
2008-03-25, 00:24:04,VALID,1009.77,VALID,0,VALID,95.932,VALID,0,VALID,24.1617,VALID,360,VALID,0.200391,
2008-03-25, 00:25:04,VALID,1009.75,VALID,0,VALID,95.9854,VALID,0,VALID,24.1812,VALID,360,VALID,0.160938,
2008-03-25, 00:26:04,VALID,1009.73,VALID,0,VALID,95.9549,VALID,0,VALID,24.2007,VALID,360,VALID,0.134375,
2008-03-25, 00:27:04,VALID,1009.74,VALID,0,VALID,95.932,VALID,0.105969,VALID,24.1599,VALID,360,VALID,0.0550781,
2008-03-25, 00:28:04,VALID,1009.74,VALID,0,VALID,95.9472,VALID,0,VALID,24.2007,VALID,360,VALID,0,
2008-03-25, 00:29:04,VALID,1009.76,VALID,0,VALID,95.9396,VALID,0,VALID,24.1617,VALID,360,VALID,0.0671875,
2008-03-25, 00:30:04,VALID,1009.71,VALID,0,VALID,95.9472,VALID,0,VALID,24.1617,VALID,360,VALID,0.0976563,
2008-03-25, 00:31:04,VALID,1009.72,VALID,0,VALID,95.9701,VALID,0,VALID,24.1617,VALID,360,VALID,0.175391,
2008-03-25, 00:32:04,VALID,1009.7,VALID,0,VALID,95.9701,VALID,0,VALID,24.1617,VALID,360,VALID,0.267188,
2008-03-25, 00:33:04,VALID,1009.69,VALID,0,VALID,96.0311,VALID,0,VALID,24.1812,VALID,360,VALID,0.330859,
2008-03-25, 00:34:04,VALID,1009.66,VALID,0,VALID,96.0311,VALID,0,VALID,24.1617,VALID,360,VALID,0.343359,
2008-03-25, 00:35:04,VALID,1009.65,VALID,0,VALID,96.0159,VALID,0,VALID,24.1812,VALID,360,VALID,0.208203,
2008-03-25, 00:36:04,VALID,1009.64,VALID,0,VALID,95.9854,VALID,0,VALID,24.1617,VALID,360,VALID,0.157422,
2008-03-25, 00:37:04,VALID,1009.61,VALID,0,VALID,96.0006,VALID,0,VALID,24.1617,VALID,360,VALID,0.116797,
2008-03-25, 00:38:04,VALID,1009.59,VALID,0,VALID,96.0311,VALID,0,VALID,24.1812,VALID,360,VALID,0,
2008-03-25, 00:39:04,VALID,1009.64,VALID,0,VALID,96.0616,VALID,0,VALID,24.1617,VALID,360,VALID,0,
2008-03-25, 00:40:04,VALID,1009.61,VALID,0,VALID,96.0692,VALID,0,VALID,24.1793,VALID,360,VALID,0,
2008-03-25, 00:41:04,VALID,1009.59,VALID,0,VALID,96.1074,VALID,0,VALID,24.2007,VALID,360,VALID,0,
2008-03-25, 00:42:04,VALID,1009.58,VALID,0,VALID,96.0921,VALID,0,VALID,24.1988,VALID,360,VALID,0.00234375,
2008-03-25, 00:43:04,VALID,1009.58,VALID,0,VALID,96.0845,VALID,0,VALID,24.2202,VALID,360,VALID,0,
2008-03-25, 00:44:04,VALID,1009.59,VALID,0,VALID,96.0845,VALID,0,VALID,24.2202,VALID,360,VALID,0.180469,
2008-03-25, 00:45:04,VALID,1009.59,VALID,0,VALID,96.0692,VALID,0,VALID,24.2183,VALID,360,VALID,0.214062,
2008-03-25, 00:46:04,VALID,1009.58,VALID,0,VALID,96.0159,VALID,0,VALID,24.2202,VALID,360,VALID,0.147656,
2008-03-25, 00:47:04,VALID,1009.59,VALID,0,VALID,95.9549,VALID,0,VALID,24.1599,VALID,360,VALID,0.180859,
2008-03-25, 00:48:04,VALID,1009.63,VALID,0,VALID,95.9015,VALID,0,VALID,24.1404,VALID,360,VALID,0.0773437,
2008-03-25, 00:49:04,VALID,1009.6,VALID,0,VALID,95.8786,VALID,0,VALID,24.1227,VALID,360,VALID,0.0652344,
2008-03-25, 00:50:04,VALID,1009.63,VALID,0,VALID,95.8405,VALID,0,VALID,24.1032,VALID,360,VALID,0.164844,
2008-03-25, 00:51:04,VALID,1009.62,VALID,0,VALID,95.8176,VALID,0.105969,VALID,24.0837,VALID,360,VALID,0.215625,
2008-03-25, 00:52:04,VALID,1009.6,VALID,0,VALID,95.8557,VALID,0.105969,VALID,24.0837,VALID,360,VALID,0.252734,
2008-03-25, 00:53:04,VALID,1009.58,VALID,0,VALID,95.8633,VALID,0,VALID,24.0643,VALID,360,VALID,0,
2008-03-25, 00:54:04,VALID,1009.57,VALID,0,VALID,95.9015,VALID,0,VALID,24.0837,VALID,360,VALID,0,
2008-03-25, 00:55:04,VALID,1009.57,VALID,0,VALID,95.9854,VALID,0,VALID,24.0837,VALID,360,VALID,0,
2008-03-25, 00:56:04,VALID,1009.54,VALID,0,VALID,96.0082,VALID,0,VALID,24.0837,VALID,360,VALID,0,
2008-03-25, 00:57:04,VALID,1009.5,VALID,0,VALID,96.0235,VALID,0,VALID,24.0837,VALID,360,VALID,0,
2008-03-25, 00:58:04,VALID,1009.49,VALID,0,VALID,96.0311,VALID,0,VALID,24.1245,VALID,360,VALID,0,
2008-03-25, 00:59:04,VALID,1009.49,VALID,0,VALID,96.0387,VALID,0,VALID,24.1032,VALID,360,VALID,0,
2008-03-25, 01:00:04,VALID,1009.46,VALID,0,VALID,96.0616,VALID,0,VALID,24.1032,VALID,360,VALID,0,
2008-03-25, 01:01:04,VALID,1009.5,VALID,0,VALID,96.1074,VALID,0,VALID,24.1422,VALID,360,VALID,0.0945313,
2008-03-25, 01:02:04,VALID,1009.45,VALID,0,VALID,96.115,VALID,0,VALID,24.1227,VALID,360,VALID,0.167969,
2008-03-25, 01:03:04,VALID,1009.45,VALID,0,VALID,96.1302,VALID,0,VALID,24.1422,VALID,360,VALID,0.278906,
2008-03-25, 01:04:04,VALID,1009.45,VALID,0,VALID,96.1455,VALID,0,VALID,24.1422,VALID,35,VALID,0.424219,
2008-03-25, 01:05:04,VALID,1009.43,VALID,0,VALID,96.1531,VALID,0,VALID,24.1635,VALID,73,VALID,0.432031,
2008-03-25, 01:06:04,VALID,1009.38,VALID,0,VALID,96.1989,VALID,0,VALID,24.1404,VALID,73,VALID,0.383594,
2008-03-25, 01:07:04,VALID,1009.37,VALID,0,VALID,96.1608,VALID,0,VALID,24.1812,VALID,73,VALID,0.521094,
2008-03-25, 01:08:04,VALID,1009.34,VALID,0,VALID,96.1531,VALID,0.105969,VALID,24.1812,VALID,73,VALID,0.479688,
2008-03-25, 01:09:04,VALID,1009.31,VALID,0,VALID,96.1302,VALID,0,VALID,24.1793,VALID,73,VALID,0.547266,
2008-03-25, 01:10:04,VALID,1009.29,VALID,0,VALID,96.1074,VALID,0,VALID,24.2007,VALID,73,VALID,0.452344,
2008-03-25, 01:11:04,VALID,1009.27,VALID,0,VALID,96.0769,VALID,0,VALID,24.2202,VALID,73,VALID,0.523047,
2008-03-25, 01:12:04,VALID,1009.25,VALID,0,VALID,96.0845,VALID,0,VALID,24.2007,VALID,73,VALID,0.479297,
2008-03-25, 01:13:04,VALID,1009.25,VALID,0,VALID,96.0235,VALID,0,VALID,24.2202,VALID,76,VALID,0.48125,
2008-03-25, 01:14:04,VALID,1009.23,VALID,0,VALID,96.0235,VALID,0,VALID,24.2202,VALID,83,VALID,0.476563,
2008-03-25, 01:15:04,VALID,1009.2,VALID,0,VALID,95.9854,VALID,0,VALID,24.2396,VALID,86,VALID,0.427344,
2008-03-25, 01:16:04,VALID,1009.2,VALID,0,VALID,95.9777,VALID,0,VALID,24.261,VALID,87,VALID,0.526953,
2008-03-25, 01:17:04,VALID,1009.18,VALID,0,VALID,95.9396,VALID,0,VALID,24.2396,VALID,94,VALID,0.664844,
2008-03-25, 01:18:04,VALID,1009.14,VALID,0,VALID,95.9244,VALID,0,VALID,24.2591,VALID,114,VALID,0.719531,
2008-03-25, 01:19:04,VALID,1009.09,VALID,0,VALID,95.9015,VALID,0,VALID,24.3176,VALID,101,VALID,0.947656,
2008-03-25, 01:20:04,VALID,1009.06,VALID,0,VALID,95.8557,VALID,0,VALID,24.3176,VALID,95,VALID,1.00391,
2008-03-25, 01:21:04,VALID,1009.04,VALID,0,VALID,95.7032,VALID,0,VALID,24.3371,VALID,97,VALID,1.18516,
2008-03-25, 01:22:04,VALID,1009,VALID,0,VALID,95.5507,VALID,0,VALID,24.3371,VALID,95,VALID,1.42461,
2008-03-25, 01:23:04,VALID,1008.98,VALID,0,VALID,95.4439,VALID,0,VALID,24.3584,VALID,87,VALID,0.805469,
2008-03-25, 01:24:04,VALID,1008.94,VALID,0,VALID,95.3905,VALID,0,VALID,24.3779,VALID,85,VALID,0.783984,
2008-03-25, 01:25:04,VALID,1008.93,VALID,0,VALID,95.3905,VALID,0,VALID,24.3566,VALID,85,VALID,0.993359,
2008-03-25, 01:26:04,VALID,1008.9,VALID,0,VALID,95.3448,VALID,0,VALID,24.3566,VALID,86,VALID,0.981641,
2008-03-25, 01:27:04,VALID,1008.88,VALID,0,VALID,95.3829,VALID,0,VALID,24.3566,VALID,95,VALID,0.947266,
2008-03-25, 01:28:04,VALID,1008.85,VALID,0,VALID,95.3448,VALID,0,VALID,24.415,VALID,96,VALID,1.12539,
2008-03-25, 01:29:04,VALID,1008.83,VALID,0,VALID,95.3448,VALID,0,VALID,24.415,VALID,89,VALID,1.05781,
2008-03-25, 01:30:04,VALID,1008.83,VALID,0,VALID,95.2533,VALID,0,VALID,24.4345,VALID,110,VALID,0.755859,
2008-03-25, 01:31:04,VALID,1008.87,VALID,0,VALID,95.2152,VALID,0,VALID,24.4345,VALID,94,VALID,0.8125,
2008-03-25, 01:32:04,VALID,1008.91,VALID,0,VALID,95.1313,VALID,0,VALID,24.454,VALID,106,VALID,0.932031,
2008-03-25, 01:33:04,VALID,1008.94,VALID,0,VALID,95.0703,VALID,0,VALID,24.4735,VALID,103,VALID,0.991406,
2008-03-25, 01:34:04,VALID,1008.96,VALID,0,VALID,94.994,VALID,0.105969,VALID,24.493,VALID,101,VALID,0.594922,
2008-03-25, 01:35:04,VALID,1008.97,VALID,0,VALID,94.9025,VALID,0,VALID,24.493,VALID,105,VALID,0.704297,
2008-03-25, 01:36:04,VALID,1008.98,VALID,0,VALID,94.8644,VALID,0,VALID,24.493,VALID,96,VALID,0.686328,
2008-03-25, 01:37:04,VALID,1008.99,VALID,0,VALID,94.7881,VALID,0,VALID,24.493,VALID,97,VALID,0.357031,
2008-03-25, 01:38:04,VALID,1008.98,VALID,0,VALID,94.7576,VALID,0,VALID,24.4735,VALID,95,VALID,0.448438,
2008-03-25, 01:39:04,VALID,1009,VALID,0,VALID,94.6814,VALID,0,VALID,24.4735,VALID,78,VALID,0.757031,
2008-03-25, 01:40:04,VALID,1008.99,VALID,0,VALID,94.7576,VALID,0,VALID,24.454,VALID,86,VALID,1.06289,
2008-03-25, 01:41:04,VALID,1008.96,VALID,0,VALID,94.7881,VALID,0,VALID,24.4345,VALID,83,VALID,1.4625,
2008-03-25, 01:42:04,VALID,1008.96,VALID,0,VALID,94.7805,VALID,0,VALID,24.415,VALID,85,VALID,0.791016,
2008-03-25, 01:43:04,VALID,1008.92,VALID,0,VALID,94.7881,VALID,0.105969,VALID,24.3761,VALID,86,VALID,0.897266,
2008-03-25, 01:44:04,VALID,1008.92,VALID,0,VALID,94.811,VALID,0,VALID,24.3547,VALID,94,VALID,0.756641,
2008-03-25, 01:45:04,VALID,1008.93,VALID,0,VALID,94.9101,VALID,0,VALID,24.3371,VALID,96,VALID,0.787891,
2008-03-25, 01:46:04,VALID,1008.91,VALID,0,VALID,95.0016,VALID,0,VALID,24.3371,VALID,94,VALID,0.894922,
2008-03-25, 01:47:04,VALID,1008.94,VALID,0,VALID,95.0245,VALID,0.105969,VALID,24.3176,VALID,78,VALID,0.655859,
2008-03-25, 01:48:04,VALID,1008.95,VALID,0,VALID,95.0855,VALID,0,VALID,24.2981,VALID,85,VALID,0.671875,
2008-03-25, 01:49:04,VALID,1008.95,VALID,0,VALID,95.0931,VALID,0,VALID,24.2786,VALID,66,VALID,0.183984,
2008-03-25, 01:50:04,VALID,1008.92,VALID,0,VALID,95.1313,VALID,0,VALID,24.2591,VALID,66,VALID,0.184375,
2008-03-25, 01:51:04,VALID,1008.93,VALID,0,VALID,95.116,VALID,0,VALID,24.2396,VALID,63,VALID,0.219141,
2008-03-25, 01:52:04,VALID,1008.92,VALID,0,VALID,95.2075,VALID,0,VALID,24.2396,VALID,60,VALID,0.298047,
2008-03-25, 01:53:04,VALID,1008.89,VALID,0,VALID,95.238,VALID,0,VALID,24.2007,VALID,60,VALID,0.0242187,
2008-03-25, 01:54:04,VALID,1008.89,VALID,0,VALID,95.2152,VALID,0,VALID,24.2007,VALID,60,VALID,0,
2008-03-25, 01:55:04,VALID,1008.88,VALID,0,VALID,95.2838,VALID,0.105969,VALID,24.1812,VALID,60,VALID,0.000390625,
2008-03-25, 01:56:04,VALID,1008.88,VALID,0,VALID,95.3219,VALID,0,VALID,24.1422,VALID,60,VALID,0,
2008-03-25, 01:57:04,VALID,1008.87,VALID,0,VALID,95.36,VALID,0.105969,VALID,24.1422,VALID,60,VALID,0,
2008-03-25, 01:58:04,VALID,1008.87,VALID,0,VALID,95.3982,VALID,0.105969,VALID,24.1227,VALID,60,VALID,0.0132813,
2008-03-25, 01:59:04,VALID,1008.85,VALID,0,VALID,95.3905,VALID,0,VALID,24.0837,VALID,60,VALID,0.0304688,
2008-03-25, 02:00:04,VALID,1008.86,VALID,0,VALID,95.4211,VALID,0.105969,VALID,24.0837,VALID,60,VALID,0.003125,
2008-03-25, 02:01:04,VALID,1008.89,VALID,0,VALID,95.5126,VALID,0,VALID,24.0643,VALID,59,VALID,0,
2008-03-25, 02:02:04,VALID,1008.84,VALID,0,VALID,95.5049,VALID,0.105969,VALID,24.0253,VALID,60,VALID,0.187891,
2008-03-25, 02:03:04,VALID,1008.87,VALID,0,VALID,95.5354,VALID,0,VALID,24.0253,VALID,60,VALID,0.10625,
2008-03-25, 02:04:04,VALID,1008.88,VALID,0,VALID,95.5507,VALID,0,VALID,23.9668,VALID,59,VALID,0.209766,
2008-03-25, 02:05:04,VALID,1008.86,VALID,0,VALID,95.6498,VALID,0,VALID,23.9668,VALID,57,VALID,0.376953,
2008-03-25, 02:06:04,VALID,1008.83,VALID,0,VALID,95.688,VALID,0,VALID,23.9473,VALID,52,VALID,0.288672,
2008-03-25, 02:07:04,VALID,1008.81,VALID,0,VALID,95.6651,VALID,0,VALID,23.9278,VALID,52,VALID,0.240234,
2008-03-25, 02:08:04,VALID,1008.8,VALID,0,VALID,95.7032,VALID,0,VALID,23.9084,VALID,52,VALID,0.369922,
2008-03-25, 02:09:04,VALID,1008.71,VALID,0,VALID,95.8557,VALID,0,VALID,23.9084,VALID,65,VALID,0.735937,
2008-03-25, 02:10:04,VALID,1008.65,VALID,0,VALID,95.871,VALID,0,VALID,23.8871,VALID,67,VALID,0.575391,
2008-03-25, 02:11:04,VALID,1008.61,VALID,0,VALID,95.9472,VALID,0.105969,VALID,23.9084,VALID,72,VALID,0.584375,
2008-03-25, 02:12:04,VALID,1008.55,VALID,0,VALID,96.0006,VALID,0,VALID,23.8889,VALID,75,VALID,0.651172,
2008-03-25, 02:13:04,VALID,1008.53,VALID,0,VALID,96.0311,VALID,0.105969,VALID,23.8889,VALID,77,VALID,0.731641,
2008-03-25, 02:14:04,VALID,1008.49,VALID,0,VALID,96.0692,VALID,0,VALID,23.8889,VALID,82,VALID,0.74375,
2008-03-25, 02:15:04,VALID,1008.47,VALID,0,VALID,96.0387,VALID,0,VALID,23.8694,VALID,81,VALID,0.602734,
2008-03-25, 02:16:04,VALID,1008.44,VALID,0,VALID,96.1455,VALID,0,VALID,23.9084,VALID,78,VALID,0.707031,
2008-03-25, 02:17:04,VALID,1008.4,VALID,0,VALID,96.1531,VALID,0,VALID,23.9084,VALID,54,VALID,0.660547,
2008-03-25, 02:18:04,VALID,1008.4,VALID,0,VALID,96.1531,VALID,0.105969,VALID,23.9084,VALID,80,VALID,0.664453,
2008-03-25, 02:19:04,VALID,1008.37,VALID,0,VALID,96.1379,VALID,0,VALID,23.9084,VALID,78,VALID,0.389453,
2008-03-25, 02:20:04,VALID,1008.34,VALID,0,VALID,96.1455,VALID,0.105969,VALID,23.8871,VALID,65,VALID,0.607422,
2008-03-25, 02:21:04,VALID,1008.31,VALID,0,VALID,96.1684,VALID,0,VALID,23.9084,VALID,79,VALID,0.553125,
2008-03-25, 02:22:04,VALID,1008.32,VALID,0,VALID,96.1302,VALID,0,VALID,23.9278,VALID,68,VALID,0.275781,
2008-03-25, 02:23:04,VALID,1008.29,VALID,0,VALID,96.0997,VALID,0,VALID,23.8889,VALID,76,VALID,0.434375,
2008-03-25, 02:24:04,VALID,1008.27,VALID,0,VALID,96.0997,VALID,0,VALID,23.8889,VALID,66,VALID,0.226953,
2008-03-25, 02:25:04,VALID,1008.3,VALID,0,VALID,96.1379,VALID,0,VALID,23.8694,VALID,59,VALID,0.574219,
2008-03-25, 02:26:04,VALID,1008.31,VALID,0,VALID,96.0921,VALID,0,VALID,23.8694,VALID,4,VALID,0.433594,
2008-03-25, 02:27:04,VALID,1008.31,VALID,0,VALID,96.0997,VALID,0,VALID,23.8499,VALID,6,VALID,0.162109,
2008-03-25, 02:28:04,VALID,1008.36,VALID,0,VALID,96.1302,VALID,0,VALID,23.8499,VALID,7,VALID,0.167187,
2008-03-25, 02:29:04,VALID,1008.34,VALID,0,VALID,96.115,VALID,0,VALID,23.8499,VALID,7,VALID,0,
2008-03-25, 02:30:04,VALID,1008.37,VALID,0,VALID,96.1455,VALID,0,VALID,23.8499,VALID,87,VALID,0.04375,
2008-03-25, 02:31:04,VALID,1008.38,VALID,0,VALID,96.1455,VALID,0,VALID,23.8304,VALID,81,VALID,0.176563,
2008-03-25, 02:32:04,VALID,1008.38,VALID,0,VALID,96.1302,VALID,0,VALID,23.8304,VALID,71,VALID,0.251563,
2008-03-25, 02:33:04,VALID,1008.38,VALID,0,VALID,96.1074,VALID,0,VALID,23.8304,VALID,71,VALID,0.178125,
2008-03-25, 02:34:04,VALID,1008.41,VALID,0,VALID,96.1608,VALID,0,VALID,23.8109,VALID,71,VALID,0.301172,
2008-03-25, 02:35:04,VALID,1008.4,VALID,0,VALID,96.1684,VALID,0.105969,VALID,23.8109,VALID,71,VALID,0.319141,
2008-03-25, 02:36:04,VALID,1008.42,VALID,0,VALID,96.1836,VALID,0.105969,VALID,23.8304,VALID,71,VALID,0.289063,
2008-03-25, 02:37:04,VALID,1008.43,VALID,0,VALID,96.2218,VALID,0.105969,VALID,23.8499,VALID,73,VALID,0.226953,
2008-03-25, 02:38:04,VALID,1008.44,VALID,0,VALID,96.2294,VALID,0,VALID,23.8499,VALID,72,VALID,0.561328,
2008-03-25, 02:39:04,VALID,1008.4,VALID,0,VALID,96.2141,VALID,0,VALID,23.8304,VALID,72,VALID,0.323438,
2008-03-25, 02:40:04,VALID,1008.4,VALID,0,VALID,96.1684,VALID,0,VALID,23.8304,VALID,72,VALID,0.25,
2008-03-25, 02:41:04,VALID,1008.35,VALID,0,VALID,96.1302,VALID,0,VALID,23.7701,VALID,71,VALID,0.366797,
2008-03-25, 02:42:04,VALID,1008.32,VALID,0,VALID,96.1074,VALID,0.105969,VALID,23.7914,VALID,71,VALID,0.0121094,
2008-03-25, 02:43:04,VALID,1008.31,VALID,0,VALID,96.1379,VALID,0,VALID,23.772,VALID,71,VALID,0.240234,
2008-03-25, 02:44:04,VALID,1008.32,VALID,0,VALID,96.1836,VALID,0.105969,VALID,23.772,VALID,58,VALID,0.534766,
2008-03-25, 02:45:04,VALID,1008.29,VALID,0,VALID,96.1989,VALID,0.105969,VALID,23.7914,VALID,68,VALID,0.566016,
2008-03-25, 02:46:04,VALID,1008.27,VALID,0,VALID,96.1913,VALID,0,VALID,23.772,VALID,73,VALID,0.321484,
2008-03-25, 02:47:04,VALID,1008.27,VALID,0,VALID,96.1836,VALID,0.105969,VALID,23.772,VALID,69,VALID,0.305078,
2008-03-25, 02:48:04,VALID,1008.25,VALID,0,VALID,96.2065,VALID,0,VALID,23.7525,VALID,68,VALID,0.258984,
2008-03-25, 02:49:04,VALID,1008.27,VALID,0,VALID,96.2523,VALID,0,VALID,23.772,VALID,68,VALID,0.458594,
2008-03-25, 02:50:04,VALID,1008.24,VALID,0,VALID,96.2218,VALID,0.105969,VALID,23.733,VALID,68,VALID,0.391406,
2008-03-25, 02:51:04,VALID,1008.26,VALID,0,VALID,96.2599,VALID,0.105969,VALID,23.7525,VALID,69,VALID,0.530078,
2008-03-25, 02:52:04,VALID,1008.27,VALID,0,VALID,96.2599,VALID,0,VALID,23.733,VALID,69,VALID,0.207813,
2008-03-25, 02:53:04,VALID,1008.26,VALID,0,VALID,96.2599,VALID,0,VALID,23.7525,VALID,69,VALID,0,
2008-03-25, 02:54:04,VALID,1008.29,VALID,0,VALID,96.2141,VALID,0,VALID,23.694,VALID,69,VALID,0,
2008-03-25, 02:55:04,VALID,1008.3,VALID,0,VALID,96.298,VALID,0.105969,VALID,23.7117,VALID,17,VALID,0.232422,
2008-03-25, 02:56:04,VALID,1008.32,VALID,0,VALID,96.3514,VALID,0,VALID,23.7312,VALID,359,VALID,0.021875,
2008-03-25, 02:57:04,VALID,1008.31,VALID,0,VALID,96.3209,VALID,0.105969,VALID,23.733,VALID,359,VALID,0,
2008-03-25, 02:58:04,VALID,1008.33,VALID,0,VALID,96.3285,VALID,0.105969,VALID,23.7525,VALID,358,VALID,0.00117188,
2008-03-25, 02:59:04,VALID,1008.3,VALID,0,VALID,96.3361,VALID,0.105969,VALID,23.7117,VALID,358,VALID,0,
2008-03-25, 03:00:04,VALID,1008.3,VALID,0,VALID,96.3209,VALID,0,VALID,23.733,VALID,43,VALID,0.178125,
2008-03-25, 03:01:04,VALID,1008.29,VALID,0,VALID,96.359,VALID,0,VALID,23.7525,VALID,77,VALID,0.171875,
2008-03-25, 03:02:04,VALID,1008.31,VALID,0,VALID,96.3133,VALID,0.105969,VALID,23.7117,VALID,76,VALID,0.00273437,
2008-03-25, 03:03:04,VALID,1008.29,VALID,0,VALID,96.3133,VALID,0.105969,VALID,23.7135,VALID,76,VALID,0.330859,
2008-03-25, 03:04:04,VALID,1008.28,VALID,0,VALID,96.3285,VALID,0.105969,VALID,23.6922,VALID,77,VALID,0.214062,
2008-03-25, 03:05:04,VALID,1008.29,VALID,0,VALID,96.359,VALID,0.105969,VALID,23.694,VALID,76,VALID,0.414453,
2008-03-25, 03:06:04,VALID,1008.29,VALID,0,VALID,96.359,VALID,0.105969,VALID,23.6922,VALID,77,VALID,0.561328,
2008-03-25, 03:07:04,VALID,1008.29,VALID,0,VALID,96.3819,VALID,0.105969,VALID,23.7117,VALID,91,VALID,0.657031,
2008-03-25, 03:08:04,VALID,1008.3,VALID,0,VALID,96.3895,VALID,0,VALID,23.7117,VALID,62,VALID,0.375391,
2008-03-25, 03:09:04,VALID,1008.32,VALID,0,VALID,96.3895,VALID,0,VALID,23.7135,VALID,69,VALID,0.660156,
2008-03-25, 03:10:04,VALID,1008.29,VALID,0,VALID,96.3819,VALID,0,VALID,23.6922,VALID,68,VALID,0.545313,
2008-03-25, 03:11:04,VALID,1008.28,VALID,0,VALID,96.4124,VALID,0,VALID,23.7153,VALID,84,VALID,0.657812,
2008-03-25, 03:12:04,VALID,1008.26,VALID,0,VALID,96.4124,VALID,0,VALID,23.7348,VALID,82,VALID,0.605078,
2008-03-25, 03:13:04,VALID,1008.27,VALID,0,VALID,96.42,VALID,0,VALID,23.7348,VALID,77,VALID,0.45625,
2008-03-25, 03:14:04,VALID,1008.25,VALID,0,VALID,96.3819,VALID,0,VALID,23.7135,VALID,88,VALID,0.401172,
2008-03-25, 03:15:04,VALID,1008.22,VALID,0,VALID,96.42,VALID,0,VALID,23.7135,VALID,83,VALID,0.74375,
2008-03-25, 03:16:04,VALID,1008.22,VALID,0,VALID,96.4124,VALID,0,VALID,23.7153,VALID,83,VALID,0.516016,
2008-03-25, 03:17:04,VALID,1008.21,VALID,0,VALID,96.4048,VALID,0,VALID,23.694,VALID,78,VALID,0.487891,
2008-03-25, 03:18:04,VALID,1008.2,VALID,0,VALID,96.3666,VALID,0,VALID,23.6958,VALID,76,VALID,0.510547,
2008-03-25, 03:19:04,VALID,1008.19,VALID,0,VALID,96.3514,VALID,0,VALID,23.6958,VALID,57,VALID,0.321484,
2008-03-25, 03:20:04,VALID,1008.21,VALID,0,VALID,96.3743,VALID,0,VALID,23.6745,VALID,53,VALID,0.881641,
2008-03-25, 03:21:04,VALID,1008.23,VALID,0,VALID,96.3819,VALID,0,VALID,23.6958,VALID,68,VALID,0.66875,
2008-03-25, 03:22:04,VALID,1008.23,VALID,0,VALID,96.359,VALID,0,VALID,23.694,VALID,59,VALID,0.416406,
2008-03-25, 03:23:04,VALID,1008.23,VALID,0,VALID,96.3438,VALID,0,VALID,23.655,VALID,39,VALID,0.324219,
2008-03-25, 03:24:04,VALID,1008.22,VALID,0,VALID,96.3361,VALID,0,VALID,23.6568,VALID,73,VALID,0.445313,
2008-03-25, 03:25:04,VALID,1008.17,VALID,0,VALID,96.3285,VALID,0,VALID,23.6568,VALID,74,VALID,0.420703,
2008-03-25, 03:26:04,VALID,1008.18,VALID,0,VALID,96.3666,VALID,0.105969,VALID,23.6338,VALID,77,VALID,0.430078,
2008-03-25, 03:27:04,VALID,1008.16,VALID,0,VALID,96.3438,VALID,0.105969,VALID,23.6143,VALID,79,VALID,0.319141,
2008-03-25, 03:28:04,VALID,1008.15,VALID,0,VALID,96.4505,VALID,0.105969,VALID,23.6532,VALID,64,VALID,0.575391,
2008-03-25, 03:29:04,VALID,1008.15,VALID,0,VALID,96.4124,VALID,0.105969,VALID,23.6338,VALID,61,VALID,0.624219,
2008-03-25, 03:30:04,VALID,1008.14,VALID,0,VALID,96.4048,VALID,0.105969,VALID,23.655,VALID,61,VALID,0.373828,
2008-03-25, 03:31:04,VALID,1008.09,VALID,0,VALID,96.3895,VALID,0,VALID,23.655,VALID,56,VALID,0.242188,
2008-03-25, 03:32:04,VALID,1008.11,VALID,0,VALID,96.3743,VALID,0.105969,VALID,23.6356,VALID,55,VALID,0,
2008-03-25, 03:33:04,VALID,1008.08,VALID,0,VALID,96.3743,VALID,0.105969,VALID,23.6356,VALID,52,VALID,0.567578,
2008-03-25, 03:34:04,VALID,1008.09,VALID,0,VALID,96.3743,VALID,0,VALID,23.6161,VALID,91,VALID,0,
2008-03-25, 03:35:04,VALID,1008.1,VALID,0,VALID,96.3895,VALID,0.105969,VALID,23.6161,VALID,85,VALID,0.378125,
2008-03-25, 03:36:04,VALID,1008.07,VALID,0,VALID,96.4277,VALID,0,VALID,23.6161,VALID,69,VALID,0.326562,
2008-03-25, 03:37:04,VALID,1008.09,VALID,0,VALID,96.4277,VALID,0,VALID,23.6143,VALID,70,VALID,0.547656,
2008-03-25, 03:38:04,VALID,1008.08,VALID,0,VALID,96.4582,VALID,0.105969,VALID,23.6338,VALID,61,VALID,0.341016,
2008-03-25, 03:39:04,VALID,1008.11,VALID,0,VALID,96.4429,VALID,0,VALID,23.6338,VALID,29,VALID,0.0410156,
2008-03-25, 03:40:04,VALID,1008.1,VALID,0,VALID,96.4277,VALID,0.105969,VALID,23.6356,VALID,29,VALID,0,
2008-03-25, 03:41:04,VALID,1008.11,VALID,0,VALID,96.3743,VALID,0,VALID,23.5966,VALID,28,VALID,0.177344,
2008-03-25, 03:42:04,VALID,1008.08,VALID,0,VALID,96.4124,VALID,0,VALID,23.6179,VALID,353,VALID,0.277344,
2008-03-25, 03:43:04,VALID,1008.08,VALID,0,VALID,96.3666,VALID,0,VALID,23.5984,VALID,358,VALID,0.245703,
2008-03-25, 03:44:04,VALID,1008.09,VALID,0,VALID,96.3743,VALID,0,VALID,23.5984,VALID,358,VALID,0.1125,